PRIVATE WETTERSTATION BILLIGHEIM-ALLFELD                       ZURCK
Wetterdaten: Samstag, 24.05.2014
Datum Zeit Temp. A. Temp. A. min Temp. A. max Feuchte A. Luftdruck Regen Wind Richtung Richtung Sonnenschein ET Solar Taupunkt Windchill Windben Empfang
24.05.2014 00:00 13,8 C 13,7 C 13,9 C 80 % 1010,7 hPa 0,0 l/m 0,0 km/h (0 Bft) N 360 0 min 0,025 mm 0 W/m 10,4 C 13,8 C 8,0 km/h (2 Bft) 90 %
24.05.2014 00:10 13,6 C 13,6 C 13,7 C 81 % 1010,8 hPa 0,0 l/m 1,6 km/h (1 Bft) N 360 0 min 0,000 mm 0 W/m 10,4 C 13,6 C 11,3 km/h (2 Bft) 99 %
24.05.2014 00:20 13,4 C 13,4 C 13,6 C 81 % 1010,7 hPa 0,0 l/m 0,0 km/h (0 Bft) N 360 0 min 0,000 mm 0 W/m 10,2 C 13,4 C 6,4 km/h (2 Bft) 100 %
24.05.2014 00:30 13,4 C 13,4 C 13,4 C 81 % 1010,8 hPa 0,0 l/m 0,0 km/h (0 Bft) NO 45 0 min 0,000 mm 0 W/m 10,2 C 13,4 C 4,8 km/h (1 Bft) 100 %
24.05.2014 00:40 13,4 C 13,4 C 13,4 C 81 % 1010,9 hPa 0,0 l/m 0,0 km/h (0 Bft) O 90 0 min 0,000 mm 0 W/m 10,2 C 13,4 C 8,0 km/h (2 Bft) 100 %
24.05.2014 00:50 13,4 C 13,4 C 13,4 C 81 % 1011,0 hPa 0,0 l/m 0,0 km/h (0 Bft) NW 315 0 min 0,000 mm 0 W/m 10,2 C 13,4 C 4,8 km/h (1 Bft) 100 %
24.05.2014 01:00 13,4 C 13,4 C 13,4 C 81 % 1010,8 hPa 0,0 l/m 1,6 km/h (1 Bft) NO 45 0 min 0,025 mm 0 W/m 10,2 C 13,4 C 8,0 km/h (2 Bft) 100 %
24.05.2014 01:10 13,3 C 13,3 C 13,4 C 81 % 1010,8 hPa 0,0 l/m 1,6 km/h (1 Bft) O-SO 112 0 min 0,000 mm 0 W/m 10,1 C 13,3 C 8,0 km/h (2 Bft) 100 %
24.05.2014 01:20 13,3 C 13,3 C 13,3 C 82 % 1010,7 hPa 0,0 l/m 0,0 km/h (0 Bft) N-NW 337 0 min 0,000 mm 0 W/m 10,3 C 13,3 C 8,0 km/h (2 Bft) 100 %
24.05.2014 01:30 13,1 C 13,1 C 13,3 C 82 % 1010,6 hPa 0,0 l/m 0,0 km/h (0 Bft) NW 315 0 min 0,000 mm 0 W/m 10,1 C 13,1 C 4,8 km/h (1 Bft) 100 %
24.05.2014 01:40 13,1 C 13,1 C 13,1 C 82 % 1010,6 hPa 0,0 l/m 0,0 km/h (0 Bft) NO 45 0 min 0,000 mm 0 W/m 10,1 C 13,1 C 4,8 km/h (1 Bft) 100 %
24.05.2014 01:50 12,9 C 12,9 C 13,1 C 82 % 1010,9 hPa 0,0 l/m 0,0 km/h (0 Bft) NO 45 0 min 0,000 mm 0 W/m 9,9 C 12,9 C 4,8 km/h (1 Bft) 100 %
24.05.2014 02:00 12,5 C 12,5 C 12,9 C 83 % 1010,6 hPa 0,0 l/m 0,0 km/h (0 Bft) N-NO 22 0 min 0,025 mm 0 W/m 9,7 C 12,5 C 1,6 km/h (1 Bft) 100 %
24.05.2014 02:10 12,1 C 12,1 C 12,5 C 83 % 1010,7 hPa 0,0 l/m 1,6 km/h (1 Bft) NW 315 0 min 0,000 mm 0 W/m 9,3 C 12,1 C 4,8 km/h (1 Bft) 100 %
24.05.2014 02:20 11,8 C 11,8 C 12,1 C 85 % 1010,7 hPa 0,0 l/m 0,0 km/h (0 Bft) SO 135 0 min 0,000 mm 0 W/m 9,4 C 11,8 C 1,6 km/h (1 Bft) 100 %
24.05.2014 02:30 11,8 C 11,8 C 11,8 C 85 % 1010,7 hPa 0,0 l/m 1,6 km/h (1 Bft) NW 315 0 min 0,000 mm 0 W/m 9,4 C 11,8 C 4,8 km/h (1 Bft) 100 %
24.05.2014 02:40 11,6 C 11,6 C 11,8 C 85 % 1010,6 hPa 0,0 l/m 1,6 km/h (1 Bft) NW 315 0 min 0,000 mm 0 W/m 9,2 C 11,6 C 6,4 km/h (2 Bft) 100 %
24.05.2014 02:50 11,4 C 11,4 C 11,6 C 85 % 1010,6 hPa 0,0 l/m 0,0 km/h (0 Bft) NW 315 0 min 0,000 mm 0 W/m 9,0 C 11,4 C 3,2 km/h (1 Bft) 100 %
24.05.2014 03:00 11,2 C 11,2 C 11,4 C 86 % 1010,5 hPa 0,0 l/m 0,0 km/h (0 Bft) N 0 0 min 0,000 mm 0 W/m 8,9 C 11,2 C 0,0 km/h (0 Bft) 100 %
24.05.2014 03:10 11,2 C 11,2 C 11,2 C 86 % 1010,5 hPa 0,0 l/m 0,0 km/h (0 Bft) NW 315 0 min 0,000 mm 0 W/m 8,9 C 11,2 C 1,6 km/h (1 Bft) 100 %
24.05.2014 03:20 11,2 C 11,1 C 11,2 C 86 % 1010,5 hPa 0,0 l/m 0,0 km/h (0 Bft) NW 315 0 min 0,000 mm 0 W/m 8,9 C 11,2 C 1,6 km/h (1 Bft) 100 %
24.05.2014 03:30 11,1 C 11,1 C 11,1 C 86 % 1010,4 hPa 0,0 l/m 0,0 km/h (0 Bft) NW 315 0 min 0,000 mm 0 W/m 8,8 C 11,1 C 1,6 km/h (1 Bft) 100 %
24.05.2014 03:40 10,9 C 10,9 C 11,1 C 86 % 1010,4 hPa 0,0 l/m 1,6 km/h (1 Bft) N-NW 337 0 min 0,000 mm 0 W/m 8,7 C 10,9 C 4,8 km/h (1 Bft) 98 %
24.05.2014 03:50 10,9 C 10,9 C 10,9 C 86 % 1011,2 hPa 0,0 l/m 0,0 km/h (0 Bft) NW 315 0 min 0,000 mm 0 W/m 8,7 C 10,9 C 1,6 km/h (1 Bft) 90 %
24.05.2014 04:00 11,1 C 10,9 C 11,1 C 87 % 1011,5 hPa 0,0 l/m 1,6 km/h (1 Bft) W-NW 292 0 min 0,000 mm 0 W/m 9,0 C 11,1 C 6,4 km/h (2 Bft) 100 %
24.05.2014 04:10 11,4 C 11,1 C 11,4 C 86 % 1011,1 hPa 0,0 l/m 0,0 km/h (0 Bft) N 360 0 min 0,000 mm 0 W/m 9,1 C 11,4 C 6,4 km/h (2 Bft) 100 %
24.05.2014 04:20 11,4 C 11,4 C 11,4 C 87 % 1011,3 hPa 0,0 l/m 1,6 km/h (1 Bft) N 360 0 min 0,000 mm 0 W/m 9,3 C 11,4 C 3,2 km/h (1 Bft) 100 %
24.05.2014 04:30 11,4 C 11,4 C 11,5 C 87 % 1011,3 hPa 0,0 l/m 0,0 km/h (0 Bft) N 360 0 min 0,000 mm 0 W/m 9,3 C 11,4 C 1,6 km/h (1 Bft) 100 %
24.05.2014 04:40 11,5 C 11,4 C 11,5 C 87 % 1011,4 hPa 0,0 l/m 0,0 km/h (0 Bft) N-NW 337 0 min 0,000 mm 0 W/m 9,4 C 11,5 C 1,6 km/h (1 Bft) 100 %
24.05.2014 04:50 11,5 C 11,4 C 11,5 C 87 % 1011,5 hPa 0,0 l/m 0,0 km/h (0 Bft) N-NW 337 0 min 0,000 mm 0 W/m 9,4 C 11,5 C 3,2 km/h (1 Bft) 100 %
24.05.2014 05:00 11,4 C 11,4 C 11,5 C 87 % 1011,6 hPa 0,0 l/m 3,2 km/h (1 Bft) NW 315 0 min 0,000 mm 0 W/m 9,3 C 11,4 C 16,1 km/h (3 Bft) 100 %
24.05.2014 05:10 11,3 C 11,3 C 11,4 C 87 % 1011,6 hPa 0,0 l/m 0,0 km/h (0 Bft) N-NO 22 0 min 0,000 mm 0 W/m 9,2 C 11,3 C 3,2 km/h (1 Bft) 100 %
24.05.2014 05:20 11,3 C 11,3 C 11,4 C 87 % 1011,7 hPa 0,0 l/m 1,6 km/h (1 Bft) N 360 0 min 0,000 mm 0 W/m 9,2 C 11,3 C 6,4 km/h (2 Bft) 100 %
24.05.2014 05:30 11,5 C 11,3 C 11,5 C 87 % 1011,8 hPa 0,0 l/m 1,6 km/h (1 Bft) N 360 0 min 0,000 mm 0 W/m 9,4 C 11,5 C 9,7 km/h (2 Bft) 100 %
24.05.2014 05:40 11,6 C 11,5 C 11,6 C 87 % 1012,0 hPa 0,0 l/m 0,0 km/h (0 Bft) N-NW 337 0 min 0,000 mm 0 W/m 9,5 C 11,6 C 4,8 km/h (1 Bft) 100 %
24.05.2014 05:50 11,7 C 11,6 C 11,7 C 87 % 1012,2 hPa 0,0 l/m 0,0 km/h (0 Bft) N-NO 22 0 min 0,000 mm 5 W/m 9,6 C 11,7 C 4,8 km/h (1 Bft) 100 %
24.05.2014 06:00 11,8 C 11,7 C 11,8 C 87 % 1012,5 hPa 0,0 l/m 3,2 km/h (1 Bft) S-SO 157 0 min 0,000 mm 7 W/m 9,7 C 11,8 C 9,7 km/h (2 Bft) 100 %
24.05.2014 06:10 11,8 C 11,7 C 11,8 C 87 % 1012,5 hPa 0,0 l/m 0,0 km/h (0 Bft) S-SW 202 0 min 0,000 mm 23 W/m 9,7 C 11,8 C 4,8 km/h (1 Bft) 100 %
24.05.2014 06:20 11,9 C 11,8 C 11,9 C 87 % 1012,7 hPa 0,0 l/m 3,2 km/h (1 Bft) W-NW 292 0 min 0,000 mm 30 W/m 9,8 C 11,9 C 11,3 km/h (2 Bft) 100 %
24.05.2014 06:30 12,1 C 11,9 C 12,1 C 87 % 1012,7 hPa 0,2 l/m 8,0 km/h (2 Bft) W-NW 292 0 min 0,000 mm 30 W/m 10,0 C 11,1 C 22,5 km/h (4 Bft) 100 %
24.05.2014 06:40 12,2 C 12,1 C 12,2 C 86 % 1012,8 hPa 0,0 l/m 12,9 km/h (3 Bft) NW 315 0 min 0,000 mm 30 W/m 9,9 C 8,6 C 22,5 km/h (4 Bft) 100 %
24.05.2014 06:50 12,3 C 12,2 C 12,3 C 86 % 1012,5 hPa 0,0 l/m 12,9 km/h (3 Bft) NW 315 0 min 0,000 mm 49 W/m 10,0 C 8,8 C 27,4 km/h (4 Bft) 100 %
24.05.2014 07:00 12,3 C 12,3 C 12,3 C 87 % 1012,3 hPa 0,0 l/m 9,7 km/h (2 Bft) NW 315 0 min 0,025 mm 72 W/m 10,2 C 10,3 C 22,5 km/h (4 Bft) 99 %
24.05.2014 07:10 12,3 C 12,3 C 12,3 C 87 % 1012,4 hPa 0,0 l/m 8,0 km/h (2 Bft) N-NW 337 0 min 0,000 mm 70 W/m 10,2 C 11,3 C 19,3 km/h (3 Bft) 100 %
24.05.2014 07:20 12,4 C 12,3 C 12,4 C 87 % 1012,7 hPa 0,0 l/m 3,2 km/h (1 Bft) NW 315 0 min 0,000 mm 76 W/m 10,3 C 12,4 C 16,1 km/h (3 Bft) 100 %
24.05.2014 07:30 12,4 C 12,3 C 12,4 C 86 % 1012,9 hPa 0,0 l/m 4,8 km/h (1 Bft) NW 315 0 min 0,000 mm 114 W/m 10,1 C 12,4 C 17,7 km/h (3 Bft) 100 %
24.05.2014 07:40 12,6 C 12,3 C 12,6 C 86 % 1013,1 hPa 0,0 l/m 1,6 km/h (1 Bft) NW 315 10 min 0,000 mm 179 W/m 10,3 C 12,6 C 9,7 km/h (2 Bft) 100 %
24.05.2014 07:50 12,8 C 12,6 C 12,8 C 86 % 1013,3 hPa 0,0 l/m 0,0 km/h (0 Bft) NW 315 10 min 0,000 mm 174 W/m 10,5 C 12,8 C 6,4 km/h (2 Bft) 100 %
24.05.2014 08:00 13,0 C 12,8 C 13,0 C 85 % 1013,3 hPa 0,0 l/m 1,6 km/h (1 Bft) NW 315 0 min 0,051 mm 105 W/m 10,5 C 13,0 C 6,4 km/h (2 Bft) 100 %
24.05.2014 08:10 13,1 C 13,0 C 13,1 C 85 % 1013,4 hPa 0,0 l/m 1,6 km/h (1 Bft) NW 315 0 min 0,000 mm 100 W/m 10,6 C 13,1 C 8,0 km/h (2 Bft) 100 %
24.05.2014 08:20 13,2 C 13,1 C 13,2 C 83 % 1013,8 hPa 0,0 l/m 3,2 km/h (1 Bft) NW 315 0 min 0,000 mm 97 W/m 10,4 C 13,2 C 14,5 km/h (3 Bft) 100 %
24.05.2014 08:30 13,2 C 13,1 C 13,2 C 82 % 1013,9 hPa 0,0 l/m 3,2 km/h (1 Bft) NW 315 0 min 0,000 mm 74 W/m 10,2 C 13,2 C 8,0 km/h (2 Bft) 99 %
24.05.2014 08:40 13,2 C 13,2 C 13,2 C 81 % 1014,2 hPa 0,0 l/m 6,4 km/h (2 Bft) W-NW 292 0 min 0,000 mm 111 W/m 10,0 C 13,2 C 16,1 km/h (3 Bft) 100 %
24.05.2014 08:50 13,4 C 13,2 C 13,4 C 82 % 1014,3 hPa 0,0 l/m 1,6 km/h (1 Bft) W-NW 292 10 min 0,000 mm 206 W/m 10,4 C 13,4 C 9,7 km/h (2 Bft) 99 %
24.05.2014 09:00 13,6 C 13,4 C 13,6 C 81 % 1014,5 hPa 0,0 l/m 1,6 km/h (1 Bft) W-NW 292 10 min 0,076 mm 200 W/m 10,4 C 13,6 C 9,7 km/h (2 Bft) 100 %
24.05.2014 09:10 13,8 C 13,6 C 13,8 C 82 % 1014,5 hPa 0,0 l/m 3,2 km/h (1 Bft) NW 315 10 min 0,000 mm 302 W/m 10,8 C 13,8 C 14,5 km/h (3 Bft) 100 %
24.05.2014 09:20 14,2 C 13,8 C 14,2 C 80 % 1014,5 hPa 0,0 l/m 8,0 km/h (2 Bft) NW 315 10 min 0,000 mm 339 W/m 10,8 C 13,3 C 17,7 km/h (3 Bft) 100 %
24.05.2014 09:30 14,3 C 14,2 C 14,3 C 78 % 1014,7 hPa 0,0 l/m 9,7 km/h (2 Bft) NW 315 10 min 0,000 mm 396 W/m 10,5 C 12,5 C 19,3 km/h (3 Bft) 100 %
24.05.2014 09:40 14,2 C 14,2 C 14,3 C 79 % 1014,7 hPa 0,0 l/m 6,4 km/h (2 Bft) NW 315 10 min 0,000 mm 271 W/m 10,6 C 14,2 C 16,1 km/h (3 Bft) 100 %
24.05.2014 09:50 14,3 C 14,2 C 14,3 C 79 % 1014,8 hPa 0,0 l/m 8,0 km/h (2 Bft) W-NW 292 10 min 0,000 mm 290 W/m 10,7 C 13,4 C 17,7 km/h (3 Bft) 100 %
24.05.2014 10:00 14,7 C 14,3 C 14,7 C 79 % 1014,8 hPa 0,0 l/m 6,4 km/h (2 Bft) NW 315 10 min 0,152 mm 473 W/m 11,1 C 14,7 C 16,1 km/h (3 Bft) 100 %
24.05.2014 10:10 15,0 C 14,7 C 15,0 C 76 % 1015,1 hPa 0,0 l/m 9,7 km/h (2 Bft) NW 315 10 min 0,000 mm 417 W/m 10,8 C 13,3 C 20,9 km/h (4 Bft) 99 %
24.05.2014 10:20 14,8 C 14,8 C 15,0 C 77 % 1015,0 hPa 0,0 l/m 9,7 km/h (2 Bft) NW 315 10 min 0,000 mm 330 W/m 10,8 C 13,0 C 19,3 km/h (3 Bft) 100 %
24.05.2014 10:30 15,1 C 14,8 C 15,1 C 77 % 1015,0 hPa 0,0 l/m 8,0 km/h (2 Bft) W-NW 292 10 min 0,000 mm 807 W/m 11,1 C 14,2 C 16,1 km/h (3 Bft) 100 %
24.05.2014 10:40 15,1 C 15,1 C 15,1 C 75 % 1015,2 hPa 0,0 l/m 6,4 km/h (2 Bft) W-NW 292 10 min 0,000 mm 380 W/m 10,7 C 15,1 C 16,1 km/h (3 Bft) 100 %
24.05.2014 10:50 15,1 C 15,1 C 15,1 C 76 % 1015,4 hPa 0,0 l/m 4,8 km/h (1 Bft) W-SW 247 10 min 0,000 mm 251 W/m 10,9 C 15,1 C 17,7 km/h (3 Bft) 100 %
24.05.2014 11:00 14,7 C 14,7 C 15,1 C 77 % 1015,7 hPa 0,0 l/m 6,4 km/h (2 Bft) W 270 10 min 0,178 mm 206 W/m 10,7 C 14,7 C 17,7 km/h (3 Bft) 100 %
24.05.2014 11:10 14,4 C 14,4 C 14,7 C 78 % 1015,9 hPa 0,0 l/m 4,8 km/h (1 Bft) W-SW 247 0 min 0,000 mm 116 W/m 10,6 C 14,4 C 19,3 km/h (3 Bft) 100 %
24.05.2014 11:20 14,1 C 14,1 C 14,3 C 79 % 1016,0 hPa 0,0 l/m 4,8 km/h (1 Bft) W 270 0 min 0,000 mm 134 W/m 10,5 C 14,1 C 17,7 km/h (3 Bft) 99 %
24.05.2014 11:30 13,9 C 13,9 C 14,1 C 80 % 1016,2 hPa 0,0 l/m 6,4 km/h (2 Bft) W-SW 247 10 min 0,000 mm 153 W/m 10,5 C 13,9 C 14,5 km/h (3 Bft) 100 %
24.05.2014 11:40 13,9 C 13,9 C 13,9 C 81 % 1016,3 hPa 0,0 l/m 6,4 km/h (2 Bft) W-SW 247 10 min 0,000 mm 195 W/m 10,7 C 13,9 C 16,1 km/h (3 Bft) 100 %
24.05.2014 11:50 13,9 C 13,8 C 13,9 C 82 % 1016,5 hPa 0,0 l/m 4,8 km/h (1 Bft) W 270 10 min 0,000 mm 248 W/m 10,9 C 13,9 C 14,5 km/h (3 Bft) 100 %
24.05.2014 12:00 13,9 C 13,9 C 13,9 C 82 % 1016,7 hPa 0,0 l/m 6,4 km/h (2 Bft) W-SW 247 0 min 0,076 mm 121 W/m 10,9 C 13,9 C 16,1 km/h (3 Bft) 100 %
24.05.2014 12:10 13,7 C 13,7 C 13,9 C 82 % 1016,7 hPa 0,0 l/m 6,4 km/h (2 Bft) W-SW 247 0 min 0,000 mm 98 W/m 10,7 C 13,7 C 17,7 km/h (3 Bft) 100 %
24.05.2014 12:20 13,6 C 13,6 C 13,7 C 82 % 1016,5 hPa 0,0 l/m 3,2 km/h (1 Bft) W-SW 247 0 min 0,000 mm 107 W/m 10,6 C 13,6 C 9,7 km/h (2 Bft) 100 %
24.05.2014 12:30 13,6 C 13,6 C 13,6 C 84 % 1015,9 hPa 0,2 l/m 3,2 km/h (1 Bft) NW 315 10 min 0,000 mm 171 W/m 10,9 C 13,6 C 9,7 km/h (2 Bft) 100 %
24.05.2014 12:40 13,6 C 13,6 C 13,6 C 84 % 1015,4 hPa 0,0 l/m 9,7 km/h (2 Bft) NW 315 10 min 0,000 mm 274 W/m 10,9 C 11,7 C 24,1 km/h (4 Bft) 100 %
24.05.2014 12:50 13,8 C 13,6 C 13,8 C 85 % 1016,2 hPa 0,0 l/m 3,2 km/h (1 Bft) NW 315 10 min 0,000 mm 628 W/m 11,3 C 13,8 C 16,1 km/h (3 Bft) 100 %
24.05.2014 13:00 14,3 C 13,8 C 14,3 C 83 % 1016,5 hPa 0,0 l/m 3,2 km/h (1 Bft) S-SW 202 10 min 0,152 mm 661 W/m 11,5 C 14,3 C 16,1 km/h (3 Bft) 100 %
24.05.2014 13:10 14,8 C 14,3 C 14,8 C 82 % 1016,5 hPa 0,0 l/m 3,2 km/h (1 Bft) S-SW 202 10 min 0,000 mm 826 W/m 11,8 C 14,8 C 12,9 km/h (3 Bft) 100 %
24.05.2014 13:20 14,9 C 14,8 C 15,1 C 77 % 1016,5 hPa 0,0 l/m 1,6 km/h (1 Bft) W 270 10 min 0,000 mm 714 W/m 10,9 C 14,9 C 9,7 km/h (2 Bft) 100 %
24.05.2014 13:30 14,9 C 14,8 C 15,0 C 80 % 1016,6 hPa 0,0 l/m 1,6 km/h (1 Bft) W-SW 247 10 min 0,000 mm 350 W/m 11,5 C 14,9 C 9,7 km/h (2 Bft) 100 %
24.05.2014 13:40 15,3 C 14,9 C 15,3 C 78 % 1016,3 hPa 0,0 l/m 1,6 km/h (1 Bft) W-SW 247 10 min 0,000 mm 1081 W/m 11,5 C 15,3 C 11,3 km/h (2 Bft) 100 %
24.05.2014 13:50 15,9 C 15,3 C 15,9 C 76 % 1016,2 hPa 0,0 l/m 3,2 km/h (1 Bft) S-SW 202 10 min 0,000 mm 1032 W/m 11,7 C 15,9 C 14,5 km/h (3 Bft) 100 %
24.05.2014 14:00 16,3 C 15,9 C 16,3 C 76 % 1016,1 hPa 0,0 l/m 3,2 km/h (1 Bft) NW 315 10 min 0,330 mm 981 W/m 12,1 C 16,3 C 8,0 km/h (2 Bft) 100 %
24.05.2014 14:10 16,8 C 16,4 C 16,8 C 74 % 1016,0 hPa 0,0 l/m 1,6 km/h (1 Bft) W-NW 292 10 min 0,000 mm 1062 W/m 12,1 C 16,8 C 8,0 km/h (2 Bft) 100 %
24.05.2014 14:20 16,9 C 16,8 C 17,0 C 73 % 1016,1 hPa 0,0 l/m 1,6 km/h (1 Bft) SW 225 10 min 0,000 mm 427 W/m 12,0 C 16,9 C 9,7 km/h (2 Bft) 100 %
24.05.2014 14:30 16,7 C 16,7 C 17,0 C 75 % 1016,1 hPa 0,0 l/m 3,2 km/h (1 Bft) S-SW 202 10 min 0,000 mm 374 W/m 12,2 C 16,7 C 9,7 km/h (2 Bft) 100 %
24.05.2014 14:40 16,4 C 16,4 C 16,7 C 73 % 1016,2 hPa 0,0 l/m 6,4 km/h (2 Bft) SW 225 10 min 0,000 mm 227 W/m 11,5 C 16,4 C 14,5 km/h (3 Bft) 96 %
24.05.2014 14:50 16,2 C 16,2 C 16,4 C 75 % 1016,2 hPa 0,0 l/m 3,2 km/h (1 Bft) SW 225 10 min 0,000 mm 160 W/m 11,8 C 16,2 C 11,3 km/h (2 Bft) 95 %
24.05.2014 15:00 16,3 C 16,1 C 16,3 C 77 % 1016,1 hPa 0,0 l/m 3,2 km/h (1 Bft) SW 225 10 min 0,229 mm 1102 W/m 12,3 C 16,3 C 9,7 km/h (2 Bft) 98 %
24.05.2014 15:10 17,2 C 16,3 C 17,2 C 73 % 1016,1 hPa 0,0 l/m 3,2 km/h (1 Bft) W-NW 292 10 min 0,000 mm 963 W/m 12,3 C 17,2 C 9,7 km/h (2 Bft) 99 %
24.05.2014 15:20 17,9 C 17,2 C 17,9 C 72 % 1016,1 hPa 0,0 l/m 1,6 km/h (1 Bft) S-SW 202 10 min 0,000 mm 965 W/m 12,8 C 17,9 C 8,0 km/h (2 Bft) 95 %
24.05.2014 15:30 18,2 C 17,9 C 18,2 C 69 % 1016,1 hPa 0,0 l/m 6,4 km/h (2 Bft) W-NW 292 10 min 0,000 mm 976 W/m 12,4 C 18,2 C 16,1 km/h (3 Bft) 96 %
24.05.2014 15:40 18,5 C 18,2 C 18,5 C 67 % 1016,2 hPa 0,0 l/m 6,4 km/h (2 Bft) W-NW 292 10 min 0,000 mm 981 W/m 12,3 C 18,5 C 14,5 km/h (3 Bft) 96 %
24.05.2014 15:50 18,6 C 18,5 C 18,6 C 61 % 1016,3 hPa 0,0 l/m 9,7 km/h (2 Bft) W-SW 247 10 min 0,000 mm 928 W/m 10,9 C 17,2 C 19,3 km/h (3 Bft) 97 %
24.05.2014 16:00 18,0 C 18,0 C 18,6 C 62 % 1016,3 hPa 0,0 l/m 8,0 km/h (2 Bft) W 270 10 min 0,381 mm 227 W/m 10,6 C 17,3 C 19,3 km/h (3 Bft) 100 %
24.05.2014 16:10 18,1 C 17,9 C 18,1 C 63 % 1016,1 hPa 0,0 l/m 9,7 km/h (2 Bft) W 270 10 min 0,000 mm 846 W/m 10,9 C 16,7 C 22,5 km/h (4 Bft) 98 %
24.05.2014 16:20 18,2 C 18,1 C 18,2 C 62 % 1016,1 hPa 0,0 l/m 6,4 km/h (2 Bft) W 270 10 min 0,000 mm 745 W/m 10,8 C 18,2 C 16,1 km/h (3 Bft) 97 %
24.05.2014 16:30 18,3 C 18,2 C 18,3 C 62 % 1016,3 hPa 0,0 l/m 8,0 km/h (2 Bft) W 270 10 min 0,000 mm 717 W/m 10,9 C 17,6 C 20,9 km/h (4 Bft) 98 %
24.05.2014 16:40 18,5 C 18,3 C 18,5 C 62 % 1016,2 hPa 0,0 l/m 8,0 km/h (2 Bft) W 270 10 min 0,000 mm 756 W/m 11,1 C 17,8 C 24,1 km/h (4 Bft) 96 %
24.05.2014 16:50 18,2 C 18,2 C 18,5 C 61 % 1016,3 hPa 0,0 l/m 8,0 km/h (2 Bft) W-SW 247 10 min 0,000 mm 707 W/m 10,6 C 17,5 C 20,9 km/h (4 Bft) 99 %
24.05.2014 17:00 17,8 C 17,8 C 18,2 C 62 % 1016,2 hPa 0,0 l/m 4,8 km/h (1 Bft) W-SW 247 10 min 0,330 mm 190 W/m 10,4 C 17,8 C 17,7 km/h (3 Bft) 100 %
24.05.2014 17:10 17,9 C 17,7 C 17,9 C 60 % 1016,1 hPa 0,0 l/m 6,4 km/h (2 Bft) W-SW 247 10 min 0,000 mm 346 W/m 10,0 C 17,9 C 19,3 km/h (3 Bft) 98 %
24.05.2014 17:20 18,1 C 17,9 C 18,1 C 59 % 1016,2 hPa 0,0 l/m 6,4 km/h (2 Bft) W 270 10 min 0,000 mm 652 W/m 10,0 C 18,1 C 20,9 km/h (4 Bft) 100 %
24.05.2014 17:30 18,3 C 18,1 C 18,3 C 56 % 1016,1 hPa 0,0 l/m 6,4 km/h (2 Bft) W 270 10 min 0,000 mm 621 W/m 9,4 C 18,3 C 19,3 km/h (3 Bft) 100 %
24.05.2014 17:40 18,1 C 18,1 C 18,3 C 55 % 1016,0 hPa 0,0 l/m 8,0 km/h (2 Bft) W-NW 292 10 min 0,000 mm 374 W/m 8,9 C 17,4 C 20,9 km/h (4 Bft) 100 %
24.05.2014 17:50 18,1 C 18,0 C 18,2 C 59 % 1016,0 hPa 0,0 l/m 4,8 km/h (1 Bft) S-SW 202 10 min 0,000 mm 318 W/m 10,0 C 18,1 C 19,3 km/h (3 Bft) 100 %
24.05.2014 18:00 18,1 C 18,0 C 18,1 C 57 % 1015,9 hPa 0,0 l/m 3,2 km/h (1 Bft) W-NW 292 10 min 0,229 mm 450 W/m 9,4 C 18,1 C 11,3 km/h (2 Bft) 99 %
24.05.2014 18:10 18,0 C 18,0 C 18,1 C 55 % 1016,0 hPa 0,0 l/m 8,0 km/h (2 Bft) W 270 10 min 0,000 mm 439 W/m 8,8 C 17,3 C 19,3 km/h (3 Bft) 100 %
24.05.2014 18:20 17,9 C 17,9 C 18,0 C 56 % 1016,0 hPa 0,0 l/m 8,0 km/h (2 Bft) W-NW 292 0 min 0,000 mm 151 W/m 9,0 C 17,1 C 20,9 km/h (4 Bft) 100 %
24.05.2014 18:30 17,8 C 17,8 C 17,9 C 57 % 1016,1 hPa 0,0 l/m 4,8 km/h (1 Bft) W-SW 247 10 min 0,000 mm 353 W/m 9,2 C 17,8 C 22,5 km/h (4 Bft) 100 %
24.05.2014 18:40 17,8 C 17,8 C 17,8 C 57 % 1016,1 hPa 0,0 l/m 4,8 km/h (1 Bft) W 270 10 min 0,000 mm 352 W/m 9,2 C 17,8 C 16,1 km/h (3 Bft) 100 %
24.05.2014 18:50 17,7 C 17,7 C 17,8 C 55 % 1016,2 hPa 0,0 l/m 4,8 km/h (1 Bft) W 270 10 min 0,000 mm 322 W/m 8,5 C 17,7 C 16,1 km/h (3 Bft) 100 %
24.05.2014 19:00 17,7 C 17,7 C 17,7 C 55 % 1016,3 hPa 0,0 l/m 4,8 km/h (1 Bft) W-NW 292 10 min 0,178 mm 287 W/m 8,5 C 17,7 C 14,5 km/h (3 Bft) 100 %
24.05.2014 19:10 17,4 C 17,4 C 17,7 C 56 % 1016,2 hPa 0,0 l/m 3,2 km/h (1 Bft) W 270 10 min 0,000 mm 267 W/m 8,5 C 17,4 C 16,1 km/h (3 Bft) 100 %
24.05.2014 19:20 17,4 C 17,4 C 17,4 C 57 % 1016,3 hPa 0,0 l/m 3,2 km/h (1 Bft) W 270 10 min 0,000 mm 232 W/m 8,8 C 17,4 C 9,7 km/h (2 Bft) 100 %
24.05.2014 19:30 17,3 C 17,3 C 17,4 C 57 % 1016,4 hPa 0,0 l/m 3,2 km/h (1 Bft) W-NW 292 10 min 0,000 mm 206 W/m 8,7 C 17,3 C 11,3 km/h (2 Bft) 100 %
24.05.2014 19:40 16,9 C 16,9 C 17,2 C 57 % 1016,4 hPa 0,0 l/m 3,2 km/h (1 Bft) W-NW 292 0 min 0,000 mm 35 W/m 8,3 C 16,9 C 14,5 km/h (3 Bft) 100 %
24.05.2014 19:50 16,7 C 16,7 C 17,2 C 59 % 1016,5 hPa 0,0 l/m 1,7 km/h (1 Bft) W-NW 292 0 min 0,000 mm 30 W/m 8,6 C 16,7 C 9,7 km/h (2 Bft) 100 %
24.05.2014 20:00 16,5 C 16,5 C 16,7 C 58 % 1016,6 hPa 0,0 l/m 2,3 km/h (1 Bft) W 275 0 min 0,053 mm 26 W/m 8,2 C 16,5 C 8,0 km/h (2 Bft) 99 %
24.05.2014 20:10 16,3 C 16,3 C 16,5 C 59 % 1016,7 hPa 0,0 l/m 0,9 km/h (0 Bft) W-NW 298 0 min 0,000 mm 25 W/m 8,3 C 16,3 C 6,4 km/h (2 Bft) 100 %
24.05.2014 20:20 16,1 C 16,1 C 16,3 C 60 % 1016,7 hPa 0,0 l/m 0,1 km/h (0 Bft) NW 312 0 min 0,000 mm 21 W/m 8,3 C 16,1 C 3,2 km/h (1 Bft) 100 %
24.05.2014 20:30 15,8 C 15,8 C 16,1 C 61 % 1016,7 hPa 0,0 l/m 0,7 km/h (0 Bft) W-NW 296 0 min 0,000 mm 18 W/m 8,3 C 15,8 C 6,4 km/h (2 Bft) 100 %
24.05.2014 20:40 15,6 C 15,6 C 15,8 C 63 % 1016,9 hPa 0,0 l/m 0,0 km/h (0 Bft) W-NW 296 0 min 0,000 mm 14 W/m 8,6 C 15,6 C 1,6 km/h (1 Bft) 100 %
24.05.2014 20:50 15,2 C 15,2 C 15,6 C 66 % 1016,9 hPa 0,0 l/m 0,0 km/h (0 Bft) W-NW 296 0 min 0,000 mm 9 W/m 8,9 C 15,2 C 1,6 km/h (1 Bft) 100 %
24.05.2014 21:00 14,6 C 14,6 C 15,2 C 69 % 1017,0 hPa 0,0 l/m 0,0 km/h (0 Bft) O-NO 57 0 min 0,025 mm 7 W/m 9,0 C 14,6 C 0,0 km/h (0 Bft) 99 %
24.05.2014 21:10 14,0 C 14,0 C 14,6 C 70 % 1017,1 hPa 0,0 l/m 0,0 km/h (0 Bft) N 0 0 min 0,000 mm 5 W/m 8,6 C 14,0 C 0,0 km/h (0 Bft) 100 %
24.05.2014 21:20 13,5 C 13,5 C 14,0 C 71 % 1017,3 hPa 0,0 l/m 0,0 km/h (0 Bft) O-NO 67 0 min 0,000 mm 0 W/m 8,3 C 13,5 C 1,6 km/h (1 Bft) 99 %
24.05.2014 21:30 13,2 C 13,2 C 13,5 C 72 % 1017,5 hPa 0,0 l/m 0,0 km/h (0 Bft) N 0 0 min 0,000 mm 0 W/m 8,3 C 13,2 C 0,0 km/h (0 Bft) 99 %
24.05.2014 21:40 12,8 C 12,8 C 13,2 C 72 % 1017,6 hPa 0,0 l/m 0,0 km/h (0 Bft) N 0 0 min 0,000 mm 0 W/m 7,9 C 12,8 C 0,0 km/h (0 Bft) 98 %
24.05.2014 21:50 12,4 C 12,4 C 12,8 C 74 % 1017,8 hPa 0,0 l/m 0,0 km/h (0 Bft) N 0 0 min 0,000 mm 0 W/m 7,9 C 12,4 C 0,0 km/h (0 Bft) 90 %
24.05.2014 22:00 12,1 C 12,1 C 12,4 C 75 % 1017,9 hPa 0,0 l/m 0,0 km/h (0 Bft) N 0 0 min 0,000 mm 0 W/m 7,8 C 12,1 C 0,0 km/h (0 Bft) 94 %
24.05.2014 22:10 11,7 C 11,7 C 12,1 C 75 % 1018,1 hPa 0,0 l/m 0,0 km/h (0 Bft) N 0 0 min 0,000 mm 0 W/m 7,4 C 11,7 C 0,0 km/h (0 Bft) 97 %
24.05.2014 22:20 11,4 C 11,4 C 11,7 C 77 % 1018,2 hPa 0,0 l/m 0,0 km/h (0 Bft) N 0 0 min 0,000 mm 0 W/m 7,5 C 11,4 C 0,0 km/h (0 Bft) 97 %
24.05.2014 22:30 11,1 C 11,1 C 11,4 C 79 % 1018,3 hPa 0,0 l/m 0,0 km/h (0 Bft) N 0 0 min 0,000 mm 0 W/m 7,6 C 11,1 C 0,0 km/h (0 Bft) 98 %
24.05.2014 22:40 10,8 C 10,8 C 11,1 C 79 % 1018,6 hPa 0,0 l/m 0,0 km/h (0 Bft) N 0 0 min 0,000 mm 0 W/m 7,3 C 10,8 C 0,0 km/h (0 Bft) 98 %
24.05.2014 22:50 10,6 C 10,6 C 10,8 C 80 % 1018,5 hPa 0,0 l/m 0,0 km/h (0 Bft) N 0 0 min 0,000 mm 0 W/m 7,3 C 10,6 C 0,0 km/h (0 Bft) 98 %
24.05.2014 23:00 10,4 C 10,4 C 10,6 C 81 % 1018,5 hPa 0,0 l/m 0,0 km/h (0 Bft) N 0 0 min 0,025 mm 0 W/m 7,3 C 10,4 C 0,0 km/h (0 Bft) 98 %
24.05.2014 23:10 10,2 C 10,2 C 10,4 C 81 % 1018,5 hPa 0,0 l/m 0,0 km/h (0 Bft) N 0 0 min 0,000 mm 0 W/m 7,1 C 10,2 C 0,0 km/h (0 Bft) 98 %
24.05.2014 23:20 9,9 C 9,9 C 10,2 C 82 % 1018,5 hPa 0,0 l/m 0,0 km/h (0 Bft) N 0 0 min 0,000 mm 0 W/m 7,0 C 9,9 C 0,0 km/h (0 Bft) 98 %
24.05.2014 23:30 9,7 C 9,7 C 9,9 C 83 % 1018,5 hPa 0,0 l/m 0,0 km/h (0 Bft) N 0 0 min 0,000 mm 0 W/m 7,0 C 9,7 C 0,0 km/h (0 Bft) 97 %
24.05.2014 23:40 9,4 C 9,4 C 9,7 C 84 % 1018,7 hPa 0,0 l/m 0,0 km/h (0 Bft) N 0 0 min 0,000 mm 0 W/m 6,8 C 9,4 C 0,0 km/h (0 Bft) 98 %
24.05.2014 23:50 9,3 C 9,3 C 9,4 C 84 % 1018,8 hPa 0,0 l/m 0,0 km/h (0 Bft) O 90 0 min 0,000 mm 0 W/m 6,7 C 9,3 C 1,6 km/h (1 Bft) 97 %
_ Min-Zeit 23:50 23:50 23:50 17:40 03:30 - 00:00 - - - - - 23:50 06:40 03:00 03:50
Minimum _ 9,3 C 9,3 C 9,4 C 55 % 1010,4 hPa - 0,0 km/h (0 Bft) - - - - - 6,7 C 8,6 C 0,0 km/h (0 Bft) 90 %
_ Max-Zeit 15:50 15:50 15:50 04:00 23:50 06:30 06:40 - - 07:40 16:00 15:00 15:20 15:40 06:50 00:20
Maximum _ 18,6 C 18,5 C 18,6 C 87 % 1018,8 hPa 0,2 l/m 12,9 km/h
NW (3 Bft)
- - 10 min 0,381 mm 1102 W/m 12,8 C 18,5 C 27,4 km/h
NW (4 Bft)
100 %
Durchschnitt _ 14,1 C 14,0 C 14,2 C 76 % 1014,7 hPa #0,4 l/m 3,2 km/h (1 Bft) NW - #10:10 h #2,565 mm 344 W/m 9,8 C 13,9 C 10,4 km/h (2 Bft) 99 %
PRIVATE WETTERSTATION BILLIGHEIM-ALLFELD - www.neckar-odenwald-wetter.de - Holger Sonntag